Regional Weather Roundup
Issued by NWS Raleigh/Durham, NC

Home | Current Version | Previous Version | Text Only | Print | Product List | Glossary On
Versions: 1 2 3 4 5 6 7 8 9 10 11 12 13 14 15 16 17 18 19 20 21 22 23 24 25 26 27 28 29 30 31 32 33 34 35 36 37 38 39 40 41 42 43 44 45 46 47 48 49 50
000
ASUS42 KRAH 251910
RWRRAH
NORTH CAROLINA WEATHER ROUNDUP
NATIONAL WEATHER SERVICE RALEIGH NC
300 PM EDT SAT MAR 25 2017

NOTE: "FAIR" INDICATES FEW OR NO CLOUDS BELOW 12,000 FEET WITH NO
SIGNIFICANT WEATHER AND/OR OBSTRUCTIONS TO VISIBILITY.

NCZ001-053-055-056-065-067-252000-
WESTERN NORTH CAROLINA

CITY           SKY/WX    TMP DP  RH WIND       PRES   REMARKS
ASHEVILLE      CLOUDY    64  47  53 S8        30.24F
JEFFERSON      SUNNY     64  45  50 S6        30.24F
MORGANTON      CLOUDY    71  47  42 S8G17     30.27F
HICKORY        CLOUDY    69  48  47 S10G18    30.23F
RUTHERFORDTON  PTSUNNY   71  48  43 SW9G21    30.24F
MOUNT AIRY     MOSUNNY   71  52  50 S8        30.23F
BOONE          MOSUNNY   64  45  50 S3        30.26F
$$

NCZ021-022-025-041-071-084-088-252000-
CENTRAL NORTH CAROLINA

CITY           SKY/WX    TMP DP  RH WIND       PRES   REMARKS
CHARLOTTE      PTSUNNY   72  49  44 VRB7G17   30.25F
GREENSBORO     CLOUDY    73  50  44 SW13      30.23F
WINSTON-SALEM  MOSUNNY   70  46  42 S8G17     30.24F
RALEIGH-DURHAM PTSUNNY   75  49  39 SW14      30.24F
FORT BRAGG     PTSUNNY   74  49  40 SW8       30.24F
FAYETTEVILLE   PTSUNNY   75  49  39 SW10      30.25F
BURLINGTON     MOSUNNY   76  49  38 S8G18     30.22F
LAURINBURG     NOT AVBL
$$

NCZ011-015-027-028-043-044-047-080-103-252000-
NORTHEASTERN NORTH CAROLINA

CITY           SKY/WX    TMP DP  RH WIND       PRES   REMARKS
ROCKY MT-WILSO MOSUNNY   75  51  43 SW15G22   30.25F
GREENVILLE     PTSUNNY   75  52  43 W7        30.26F
WASHINGTON     MOSUNNY   75  52  44 SW13      30.25F
ELIZABETH CITY MOSUNNY   75  50  41 SW16G25   30.24F
MANTEO         PTSUNNY   65  51  60 S13       30.26F
CAPE HATTERAS  MOSUNNY   70  55  59 SW12      30.29F
$$

NCZ078-087-090-091-093-098-101-252000-
SOUTHEASTERN NORTH CAROLINA

CITY           SKY/WX    TMP DP  RH WIND       PRES   REMARKS
LUMBERTON      PTSUNNY   75  49  39 SW12G18   30.25F
GOLDSBORO      PTSUNNY   75  50  41 S13G20    30.24F
KINSTON        PTSUNNY   75  50  41 S14       30.27F
KENANSVILLE    PTSUNNY   75  50  41 S6        30.27F
NEW BERN       PTSUNNY   77  52  41 W13       30.27F
CHERRY POINT   MOSUNNY   74  50  42 SW18G25   30.29F
BEAUFORT       SUNNY     72  56  57 SW17      30.30F
JACKSONVILLE   MOSUNNY   75  51  43 S14G20    30.27F
WILMINGTON     CLOUDY    72  52  49 S13       30.29F
$$




USA.gov is the U.S. government's official web portal to all federal, state and local government web resources and services.